Regional Weather Roundup
Issued by NWS Sioux Falls, SD

Home | Current Version | Previous Version | Text Only | Print | Product List | Glossary Off
Versions: 1 2 3 4 5 6 7 8 9 10 11 12 13 14 15 16 17 18 19 20 21 22 23 24 25 26 27 28 29 30 31 32 33 34 35 36 37 38 39 40 41 42 43 44 45 46 47 48 49 50

000
ASUS43 KFSD 260602
RWRFSD

WEATHER ROUNDUP FOR SE SOUTH DAKOTA/SW MINNESOTA/NW IOWA
NATIONAL WEATHER SERVICE SIOUX FALLS SD
100 AM CDT FRI AUG 26 2016

NOTE: "FAIR" INDICATES FEW OR NO CLOUDS BELOW 12,000 FEET WITH NO
SIGNIFICANT WEATHER AND OR OBSTRUCTIONS TO VISIBILITY.


SDZ038>040-050-052>070-260700-
SOUTHEAST SOUTH DAKOTA

CITY           SKY/WX    TMP DP  RH WIND       PRES   REMARKS
BROOKINGS      FAIR      52  51  97 CALM      30.18S
CHAMBERLAIN    FAIR      53  49  87 SE3       30.20S
6HR MIN TEMP:  52; 6HR MAX TEMP:  74;

HURON          FAIR      52  49  89 SW3       30.18F
6HR MIN TEMP:  51; 6HR MAX TEMP:  68;

MADISON        FAIR      52  52 100 CALM      30.19S
MITCHELL       FAIR      56  52  86 S3        30.19F
6HR MIN TEMP:  54; 6HR MAX TEMP:  73;

SIOUX FALLS    FAIR      55  53  93 NW3       30.20R
6HR MIN TEMP:  55; 6HR MAX TEMP:  73;

WINNER         FAIR      56  48  74 S6        30.21S
YANKTON        FAIR      54  48  82 NW3       30.18R
$$

MNZ071-072-080-081-089-090-097-098-260700-
SOUTHWEST MINNESOTA

CITY           SKY/WX    TMP DP  RH WIND       PRES   REMARKS
FAIRMONT       FAIR      57  55  93 CALM      30.17S
JACKSON        FAIR      54  52  94 CALM      30.19S
LUVERNE        FAIR      52  50  93 CALM      30.20R
MARSHALL       FAIR      53  51  93 W5        30.19R
6HR MIN TEMP:  53; 6HR MAX TEMP:  66;

MONTEVIDEO     FAIR      55  52  88 W3        30.18R
PIPESTONE      FAIR      54  52  94 CALM      30.20R
REDWOOD FALLS  FAIR      57  52  83 W3        30.17R
TRACY          FAIR      57  54  90 W3        30.19R
WINDOM         FAIR      55  54  94 CALM      30.18R
WORTHINGTON    FAIR      53  52  96 CALM      30.20R
$$

IAZ001>003-012>014-020>022-031-032-NEZ013-014-SDZ071-260700-
NORTHWEST IOWA

CITY           SKY/WX    TMP DP  RH WIND       PRES   REMARKS
ESTHERVILLE    FAIR      53  53 100 N5        30.17S
SIOUX CITY     FAIR      60  57  89 NW6       30.17S
6HR MIN TEMP:  58; 6HR MAX TEMP:  74;

SPENCER        FAIR      54  52  93 W3        30.18S FOG
6HR MIN TEMP:  54; 6HR MAX TEMP:  72;

$$

ABBREVIATIONS USED IN REMARKS
   TC - TEMPERATURE IN CELSIUS
  WCI - WIND CHILL INDEX
   HX - HEAT INDEX
  VSB - VISIBILITY





USA.gov is the U.S. government's official web portal to all federal, state and local government web resources and services.